Weather History for South Lake Tahoe, CA

Change the Weather History Date:

Sunday, January 27, 2013

  Actual Average Record
Temperature  
Mean Temperature 26 °F 30 °F  
Max Temperature 33 °F 43 °F 57 °F (1988)
Min Temperature 19 °F 16 °F -5 °F (1979)
Degree Days  
Heating Degree Days 39 35  
Month to date heating degree days 1077 952  
Since 1 July heating degree days 3939 4135  
Cooling Degree Days 0 0  
Month to date cooling degree days 0 0  
Year to date cooling degree days 0 0  
Moisture  
Dew Point 18 °F    
Average Humidity 67    
Maximum Humidity 81    
Minimum Humidity 53    
Precipitation  
Precipitation 0.03 in - 2.04 in (1956)
Month to date precipitation 0.69  
Year to date precipitation 0.69  
Sea Level Pressure  
Sea Level Pressure 29.93 in    
Wind  
Wind Speed 5 mph (South)    
Max Wind Speed 26 mph    
Max Gust Speed 35 mph    
Visibility 5 miles    
Events Snow    
T = Trace of Precipitation, MM = Missing Value Source: NWS Daily Summary

Daily Weather History Graph

Daily Weather History Graph

Search for Another Location

Airport:

Trip Planner

Search our weather history database for the weather conditions in past years. The results will help you decide how hot, cold, wet, or windy it might be!

Date:

Astronomy

Jan. 27, 2013 Rise Set
Actual Time 7:10 AM PST 5:16 PM PST
Civil Twilight 6:41 AM PST 5:44 PM PST
Nautical Twilight 6:09 AM PST 6:16 PM PST
Astronomical Twilight 5:38 AM PST 6:48 PM PST
Moon 6:14 PM PST (1/27) 7:06 AM PST (1/27)
Length of Visible Light 11h 02m
Length of Day
10h 06m
Full, 100% of the Moon is Illuminated
Jan 27
Full
Feb 3
Last Quarter
Feb 9
New
Feb 17
First Quarter
Feb 25
Full

Hourly Weather History & Observations

Time (PST) Temp. Windchill Dew Point Humidity Pressure Visibility Wind Dir Wind Speed Gust Speed Precip Events Conditions
12:53 AM 32.0 °F 24.8 °F 19.9 °F 61% 29.78 in 9.0 mi SSW 8.1 mph 17.3 mph 0.00 in Snow Light Snow
1:05 AM 32.0 °F 24.2 °F 21.2 °F 64% 29.84 in 2.5 mi SSW 9.2 mph 20.7 mph 0.00 in Snow Light Snow
1:08 AM 30.2 °F 21.9 °F 21.2 °F 69% 29.84 in 1.8 mi SSW 9.2 mph - 0.00 in Snow Light Snow
1:17 AM 30.2 °F 19.3 °F 19.4 °F 64% 29.84 in 3.0 mi SSW 15.0 mph 23.0 mph 0.01 in Snow Light Snow
1:25 AM 30.2 °F 20.8 °F 19.4 °F 64% 29.83 in 5.0 mi SSW 11.5 mph 24.2 mph 0.01 in Snow Light Snow
1:53 AM 30.9 °F 23.5 °F 17.1 °F 57% 29.80 in 9.0 mi SW 8.1 mph 23.0 mph 0.01 in   Mostly Cloudy
2:53 AM 28.0 °F 19.3 °F 14.0 °F 56% 29.82 in 10.0 mi SSW 9.2 mph 25.3 mph N/A   Partly Cloudy
3:53 AM 26.1 °F 14.5 °F 14.0 °F 60% 29.83 in 10.0 mi South 13.8 mph - N/A   Clear
4:53 AM 26.1 °F 16.2 °F 16.0 °F 66% 29.86 in 10.0 mi SSW 10.4 mph - N/A   Overcast
5:51 AM 26.6 °F 22.6 °F 17.6 °F 69% 29.87 in 3.0 mi SSW 3.5 mph - 0.00 in Snow Light Snow
5:53 AM 26.1 °F - 17.1 °F 69% 29.86 in 1.2 mi Calm Calm - 0.00 in Snow Light Snow
6:02 AM 24.8 °F - 19.4 °F 80% 29.87 in 0.8 mi Calm Calm - 0.00 in Snow Light Snow
6:08 AM 24.8 °F - 17.6 °F 74% 29.87 in 2.0 mi Calm Calm - 0.00 in Snow Light Snow
6:13 AM 24.8 °F - 17.6 °F 74% 29.87 in 5.0 mi Calm Calm - 0.00 in Snow Light Snow
6:28 AM 24.8 °F 20.5 °F 17.6 °F 74% 29.87 in 8.0 mi SW 3.5 mph - 0.00 in   Overcast
6:35 AM 24.8 °F - 17.6 °F 74% 29.87 in 5.0 mi Calm Calm - 0.00 in Snow Light Snow
6:45 AM 24.8 °F - 17.6 °F 74% 29.88 in 9.0 mi Calm Calm - 0.00 in   Mostly Cloudy
6:53 AM 23.0 °F - 18.0 °F 81% 29.90 in 10.0 mi Calm Calm - 0.00 in   Overcast
7:32 AM 24.8 °F - 19.4 °F 80% 29.89 in 4.0 mi Calm Calm - 0.00 in Snow Light Snow
7:40 AM 24.8 °F - 19.4 °F 80% 29.89 in 9.0 mi Calm Calm - 0.00 in   Overcast
7:53 AM 25.0 °F 20.7 °F 19.0 °F 78% 29.91 in 8.0 mi South 3.5 mph - 0.00 in   Overcast
8:12 AM 24.8 °F - 19.4 °F 80% 29.90 in 4.0 mi Calm Calm - 0.00 in Snow Light Snow
8:16 AM 24.8 °F 20.5 °F 19.4 °F 80% 29.90 in 1.5 mi South 3.5 mph - 0.00 in Snow Light Snow
8:28 AM 24.8 °F 20.5 °F 19.4 °F 80% 29.90 in 0.8 mi South 3.5 mph - 0.00 in Snow Light Snow
8:38 AM 24.8 °F 19.1 °F 19.4 °F 80% 29.90 in 2.5 mi South 4.6 mph - 0.00 in Snow Light Snow
8:41 AM 24.8 °F 19.1 °F 19.4 °F 80% 29.91 in 5.0 mi South 4.6 mph - 0.00 in Snow Light Snow
8:48 AM 24.8 °F 19.1 °F 19.4 °F 80% 29.91 in 9.0 mi South 4.6 mph - 0.00 in   Overcast
8:53 AM 25.0 °F 19.3 °F 19.0 °F 78% 29.92 in 10.0 mi South 4.6 mph - 0.00 in   Overcast
9:53 AM 27.0 °F - 19.0 °F 72% 29.93 in 10.0 mi Calm Calm - N/A   Overcast
10:00 AM 28.4 °F - 17.6 °F 64% 29.93 in 2.0 mi Calm Calm - 0.00 in Snow Light Snow
10:07 AM 26.6 °F - 17.6 °F 69% 29.93 in 1.2 mi Calm Calm - 0.00 in Snow Light Snow
10:09 AM 26.6 °F 22.6 °F 17.6 °F 69% 29.93 in 2.0 mi NE 3.5 mph - 0.00 in Snow Light Snow
10:12 AM 26.6 °F - 17.6 °F 69% 29.93 in 5.0 mi Calm Calm - 0.00 in Snow Light Snow
10:19 AM 26.6 °F 22.6 °F 17.6 °F 69% 29.94 in 2.5 mi Variable 3.5 mph - 0.00 in Snow Light Snow
10:21 AM 26.6 °F 21.2 °F 17.6 °F 69% 29.94 in 1.8 mi Variable 4.6 mph - 0.00 in Snow Light Snow
10:37 AM 26.6 °F 19.1 °F 19.4 °F 74% 29.95 in 0.5 mi NNE 6.9 mph - 0.00 in Snow Snow
10:50 AM 26.6 °F - 19.4 °F 74% 29.95 in 0.2 mi Calm Calm - 0.01 in Snow Heavy Snow
10:53 AM 27.0 °F 23.0 °F 19.0 °F 72% 29.96 in 0.5 mi Variable 3.5 mph - 0.01 in Snow Snow
10:58 AM 26.6 °F 20.0 °F 17.6 °F 69% 29.95 in 1.2 mi NNE 5.8 mph - 0.00 in Snow Light Snow
11:07 AM 28.4 °F 23.3 °F 15.8 °F 59% 29.95 in 3.0 mi NNE 4.6 mph - 0.00 in Snow Light Snow
11:16 AM 28.4 °F 21.2 °F 15.8 °F 59% 29.95 in 9.0 mi Variable 6.9 mph - 0.00 in   Overcast
11:21 AM 28.4 °F - 15.8 °F 59% 29.95 in 2.5 mi Calm Calm - 0.00 in Snow Light Snow
11:26 AM 26.6 °F 22.6 °F 17.6 °F 69% 29.95 in 0.8 mi Variable 3.5 mph - 0.00 in Snow Light Snow
11:50 AM 28.4 °F 22.2 °F 17.6 °F 64% 29.95 in 1.8 mi NE 5.8 mph - 0.00 in Snow Light Snow
11:53 AM 28.9 °F 23.9 °F 18.0 °F 64% 29.95 in 3.0 mi ENE 4.6 mph - 0.00 in Snow Light Snow
12:01 PM 28.4 °F 23.3 °F 17.6 °F 64% 29.95 in 8.0 mi Variable 4.6 mph - 0.00 in Snow Light Snow
12:07 PM 28.4 °F 19.7 °F 15.8 °F 59% 29.94 in 4.0 mi NNE 9.2 mph - 0.00 in Snow Light Snow
12:09 PM 28.4 °F 24.6 °F 17.6 °F 64% 29.94 in 2.5 mi Variable 3.5 mph - 0.00 in Snow Light Snow
12:17 PM 26.6 °F 20.0 °F 17.6 °F 69% 29.94 in 1.0 mi NNE 5.8 mph - 0.00 in Snow Light Snow
12:23 PM 26.6 °F - 17.6 °F 69% 29.94 in 3.0 mi Calm Calm - 0.00 in Snow Light Snow
12:31 PM 28.4 °F 24.6 °F 17.6 °F 64% 29.94 in 9.0 mi SSE 3.5 mph - 0.00 in   Overcast
12:43 PM 30.2 °F - 15.8 °F 55% 29.94 in 4.0 mi Calm Calm - 0.00 in Snow Light Snow
12:51 PM 30.2 °F 23.4 °F 15.8 °F 55% 29.94 in 9.0 mi NNE 6.9 mph - 0.00 in   Overcast
12:53 PM 30.0 °F 23.2 °F 15.1 °F 54% 29.94 in 9.0 mi Variable 6.9 mph - 0.00 in   Overcast
1:53 PM 28.0 °F 18.6 °F 15.1 °F 58% 29.95 in 6.0 mi NNE 10.4 mph 18.4 mph 0.00 in Snow Light Snow
2:01 PM 26.6 °F 19.1 °F 17.6 °F 69% 29.94 in 4.0 mi NE 6.9 mph - 0.00 in Snow Light Snow
2:06 PM 26.6 °F 19.1 °F 17.6 °F 69% 29.94 in 2.5 mi NE 6.9 mph - 0.00 in Snow Light Snow
2:15 PM 26.6 °F - 17.6 °F 69% 29.94 in 1.5 mi Calm Calm - 0.00 in Snow Light Snow
2:20 PM 26.6 °F - 17.6 °F 69% 29.95 in 3.0 mi Calm Calm - 0.00 in Snow Light Snow
2:30 PM 26.6 °F - 17.6 °F 69% 29.95 in 1.8 mi Calm Calm - 0.00 in Snow Light Snow
2:42 PM 26.6 °F - 19.4 °F 74% 29.96 in 0.2 mi Calm Calm - 0.01 in Snow Heavy Snow
2:53 PM 26.1 °F - 19.9 °F 78% 29.99 in 0.5 mi Calm Calm - 0.01 in Snow Snow
2:57 PM 24.8 °F - 19.4 °F 80% 29.96 in 2.5 mi Calm Calm - 0.00 in Snow Light Snow
2:59 PM 24.8 °F 20.5 °F 19.4 °F 80% 29.96 in 5.0 mi SSE 3.5 mph - 0.00 in Snow Light Snow
3:08 PM 26.6 °F 21.2 °F 19.4 °F 74% 29.95 in 10.0 mi South 4.6 mph - 0.00 in   Overcast
3:53 PM 25.0 °F 19.3 °F 19.0 °F 78% 30.00 in 10.0 mi South 4.6 mph - 0.00 in   Partly Cloudy
4:53 PM 23.0 °F 18.4 °F 17.1 °F 78% 30.00 in 10.0 mi South 3.5 mph - N/A   Scattered Clouds
5:53 PM 23.0 °F - 17.1 °F 78% 30.01 in 10.0 mi Calm Calm - N/A   Mostly Cloudy
6:53 PM 23.0 °F 18.4 °F 16.0 °F 74% 30.04 in 10.0 mi South 3.5 mph - N/A   Mostly Cloudy
7:53 PM 21.9 °F - 16.0 °F 78% 30.04 in 10.0 mi Calm Calm - N/A   Overcast
8:53 PM 21.0 °F - 15.1 °F 78% 30.05 in 10.0 mi Calm Calm - N/A   Overcast
9:53 PM 21.9 °F - 15.1 °F 75% 30.03 in 10.0 mi Calm Calm - N/A   Overcast
10:53 PM 21.9 °F 17.2 °F 14.0 °F 72% 30.03 in 10.0 mi South 3.5 mph - N/A   Overcast
11:53 PM 19.9 °F - 15.1 °F 81% 30.05 in 10.0 mi Calm Calm - N/A   Overcast